^^
Datos históricos de la estación: Murcia-Puente Tocinos
Diario Informe para Octubre 11, 2019 Unidades:  Métrico    Ingés   Ambas
Diario Semanal Mensual Anual
  Máxima: Mínima: Promedio:
Temperatura: 25.9 °C 19.1 °C 22.2 °C
Punto de rocio: 18.7 °C 16.4 °C 17.8 °C
Humedad: 89% 56.4% 77%
Velocidad viento: 15.6km/h 0km/h 5.7km/h
Racha viento: 32.2km/h - -
Viento- - ESE
Presión: 1020.8 hPa 1017.0 hPa -
Precipitación: 0.0 mm    
 
 
Tabla de datos para Octubre 11, 2019
Hora Temperatura Punto de rocio Presión Viento Velocidad viento Racha viento Humedad Intensidad lluvia(por hora) Nubes
00:04 21.8 °C 18.2 °C 1020.2 hPa NNE 2.2 km/h 4.8 km/h 80% 0.0 mm
00:09 21.8 °C 18.2 °C 1020.1 hPa NNE 2.2 km/h 4.8 km/h 80% 0.0 mm
00:14 21.8 °C 18.2 °C 1020.1 hPa NNE 2.2 km/h 3.9 km/h 80% 0.0 mm
00:19 21.7 °C 18.3 °C 1020.1 hPa NNE 2.2 km/h 3.9 km/h 80.7% 0.0 mm
00:24 21.7 °C 18.3 °C 1020.1 hPa NNE 2.2 km/h 3.9 km/h 81% 0.0 mm
00:29 21.7 °C 18.3 °C 1020.1 hPa NNE 1.8 km/h 3.7 km/h 81% 0.0 mm
00:34 21.7 °C 18.3 °C 1020.1 hPa Calm   5.6 km/h 81% 0.0 mm
00:39 21.7 °C 18.3 °C 1020.0 hPa NNE 0.5 km/h 4.8 km/h 81% 0.0 mm
00:44 21.6 °C 18.2 °C 1020.0 hPa NNE 2.2 km/h 3.7 km/h 81% 0.0 mm
00:49 21.6 °C 18.2 °C 1020.0 hPa NNE 2 km/h 3.7 km/h 81% 0.0 mm
00:54 21.6 °C 18.2 °C 1020.0 hPa Calm   3.2 km/h 81% 0.0 mm
00:59 21.5 °C 18.2 °C 1020.0 hPa Calm   3.9 km/h 81.8% 0.0 mm
01:04 21.4 °C 18.2 °C 1020.0 hPa Calm   3.7 km/h 82% 0.0 mm
01:09 21.3 °C 18.2 °C 1020.0 hPa Calm   1.6 km/h 82% 0.0 mm
01:14 21.3 °C 18.1 °C 1020.0 hPa Calm   2.9 km/h 82% 0.0 mm
01:19 21.3 °C 18.1 °C 1020.0 hPa Calm   3.7 km/h 82% 0.0 mm
01:24 21.2 °C 18 °C 1019.9 hPa Calm   1.6 km/h 82% 0.0 mm
01:29 21.2 °C 18 °C 1019.9 hPa Calm   4.7 km/h 82% 0.0 mm
01:34 21.1 °C 18.1 °C 1019.9 hPa Calm   4.8 km/h 82.7% 0.0 mm
01:39 21.1 °C 18.1 °C 1019.9 hPa NNE 0.4 km/h 3.7 km/h 83% 0.0 mm
01:44 21.1 °C 18.1 °C 1019.9 hPa NNE 2.2 km/h 3.2 km/h 83% 0.0 mm
01:49 21.1 °C 18.1 °C 1020.0 hPa NE 2.2 km/h 6.4 km/h 82.9% 0.0 mm
01:54 21.1 °C 17.9 °C 1020.0 hPa ESE 2.2 km/h 8 km/h 82.2% 0.0 mm
01:59 21.1 °C 18.1 °C 1020.0 hPa ESE 2.2 km/h 8 km/h 83% 0.0 mm
02:04 21 °C 18 °C 1020.0 hPa ESE 2.2 km/h 3.2 km/h 83% 0.0 mm
02:09 21 °C 18 °C 1019.9 hPa ESE 1.8 km/h 2.3 km/h 83% 0.0 mm
02:14 21 °C 18 °C 1019.9 hPa Calm   2.3 km/h 83% 0.0 mm
02:19 20.9 °C 17.9 °C 1019.9 hPa Calm   2.3 km/h 83% 0.0 mm
02:24 20.9 °C 17.9 °C 1019.9 hPa Calm   5.8 km/h 83% 0.0 mm
02:29 20.9 °C 17.9 °C 1019.9 hPa ESE 0.7 km/h 6.4 km/h 83% 0.0 mm
02:34 20.9 °C 17.9 °C 1019.9 hPa ESE 3.2 km/h 6.4 km/h 83% 0.0 mm
02:39 20.8 °C 17.8 °C 1019.8 hPa ESE 3 km/h 4.8 km/h 83% 0.0 mm
02:44 20.8 °C 17.8 °C 1019.8 hPa ESE 2.2 km/h 3.9 km/h 83% 0.0 mm
02:49 20.8 °C 17.8 °C 1019.8 hPa ESE 1.8 km/h 3.7 km/h 83% 0.0 mm
02:54 20.7 °C 17.7 °C 1019.7 hPa Calm   3.7 km/h 83% 0.0 mm
02:59 20.7 °C 17.7 °C 1019.7 hPa Calm   3.2 km/h 83% 0.0 mm
03:04 20.6 °C 17.6 °C 1019.7 hPa Calm     83% 0.0 mm
03:09 20.6 °C 17.6 °C 1019.7 hPa Calm   4.7 km/h 83% 0.0 mm
03:14 20.5 °C 17.5 °C 1019.7 hPa Calm   4.8 km/h 83% 0.0 mm
03:19 20.4 °C 17.5 °C 1019.7 hPa ESE 0.4 km/h 3.9 km/h 83.4% 0.0 mm
03:24 20.4 °C 17.6 °C 1019.7 hPa ESE 2.2 km/h 3.7 km/h 84% 0.0 mm
03:29 20.4 °C 17.6 °C 1019.7 hPa ESE 2.2 km/h 5.6 km/h 84% 0.0 mm
03:34 20.3 °C 17.5 °C 1019.7 hPa ESE 2.2 km/h 4.8 km/h 84% 0.0 mm
03:39 20.3 °C 17.5 °C 1019.6 hPa ESE 2.2 km/h 4.8 km/h 84% 0.0 mm
03:44 20.3 °C 17.5 °C 1019.6 hPa ESE 2.2 km/h 3.9 km/h 84% 0.0 mm
03:49 20.3 °C 17.5 °C 1019.6 hPa ESE 1.8 km/h 3.7 km/h 84% 0.0 mm
03:54 20.3 °C 17.5 °C 1019.6 hPa Calm   3.2 km/h 84% 0.0 mm
03:59 20.3 °C 17.5 °C 1019.6 hPa Calm   3.7 km/h 84% 0.0 mm
04:04 20.3 °C 17.5 °C 1019.6 hPa Calm   4.7 km/h 84% 0.0 mm
04:09 20.3 °C 17.5 °C 1019.5 hPa ESE 0.6 km/h 4.8 km/h 84% 0.0 mm
04:14 20.2 °C 17.6 °C 1019.5 hPa ESE 2.9 km/h 5.6 km/h 84.6% 0.0 mm
04:19 20.2 °C 17.6 °C 1019.5 hPa ESE 2.9 km/h 4.8 km/h 85% 0.0 mm
04:24 20.2 °C 17.6 °C 1019.5 hPa ESE 2.9 km/h 4.7 km/h 85% 0.0 mm
04:29 20.2 °C 17.6 °C 1019.5 hPa ESE 2.9 km/h 4.8 km/h 85% 0.0 mm
04:34 20.2 °C 17.6 °C 1019.5 hPa SE 2.9 km/h 6.4 km/h 85% 0.0 mm
04:39 20.1 °C 17.5 °C 1019.5 hPa SE 3 km/h 8 km/h 85% 0.0 mm
04:44 20.1 °C 17.5 °C 1019.5 hPa SE 3.2 km/h 6.4 km/h 85% 0.0 mm
04:49 20 °C 17.4 °C 1019.5 hPa SE 3.2 km/h 6.4 km/h 85% 0.0 mm
04:54 20 °C 17.6 °C 1019.5 hPa SE 3.2 km/h 6.4 km/h 85.9% 0.0 mm
04:59 19.9 °C 17.5 °C 1019.5 hPa SE 3.1 km/h 6.4 km/h 86% 0.0 mm
05:04 19.9 °C 17.5 °C 1019.5 hPa SE 2.9 km/h 4.8 km/h 86% 0.0 mm
05:09 19.9 °C 17.5 °C 1019.5 hPa SE 2.8 km/h 4.7 km/h 86% 0.0 mm
05:14 19.9 °C 17.5 °C 1019.5 hPa SE 2.2 km/h 4.8 km/h 86% 0.0 mm
05:19 19.9 °C 17.4 °C 1019.6 hPa SE 2.4 km/h 5.8 km/h 85.6% 0.0 mm
05:24 19.8 °C 17.3 °C 1019.6 hPa SE 2.9 km/h 6.4 km/h 85.6% 0.0 mm
05:29 19.8 °C 17.3 °C 1019.6 hPa SE 3 km/h 6.4 km/h 86% 0.0 mm
05:34 19.7 °C 17.3 °C 1019.6 hPa SE 3.2 km/h 7.6 km/h 86% 0.0 mm
05:39 19.7 °C 17.3 °C 1019.6 hPa SSE 3.3 km/h 8 km/h 86% 0.0 mm
05:44 19.6 °C 17.4 °C 1019.6 hPa SE 3.9 km/h 8 km/h 86.9% 0.0 mm
05:49 19.6 °C 17.4 °C 1019.6 hPa SE 3.9 km/h 8 km/h 87% 0.0 mm
05:54 19.6 °C 17.4 °C 1019.5 hPa SE 3.9 km/h 8 km/h 87% 0.0 mm
05:59 19.6 °C 17.4 °C 1019.5 hPa SSE 3.8 km/h 7.6 km/h 87% 0.0 mm
06:04 19.6 °C 17.4 °C 1019.5 hPa SSE 3.2 km/h 8 km/h 87% 0.0 mm
06:09 19.6 °C 17.4 °C 1019.4 hPa SSE 3.2 km/h 5.8 km/h 87% 0.0 mm
06:14 19.5 °C 17.3 °C 1019.4 hPa SE 2.9 km/h 6.4 km/h 87% 0.0 mm
06:19 19.5 °C 17.3 °C 1019.4 hPa SSE 3.2 km/h 9.5 km/h 87% 0.0 mm
06:24 19.5 °C 17.3 °C 1019.4 hPa SSE 4.7 km/h 9.7 km/h 87% 0.0 mm
06:29 19.5 °C 17.3 °C 1019.4 hPa SSE 4.7 km/h 8 km/h 87% 0.0 mm
06:34 19.4 °C 17.2 °C 1019.4 hPa Sur 4.7 km/h 8 km/h 87% 0.0 mm
06:39 19.4 °C 17.3 °C 1019.4 hPa Sur 4.7 km/h 8 km/h 87.7% 0.0 mm
06:44 19.4 °C 17.3 °C 1019.4 hPa Sur 4.7 km/h 8 km/h 88% 0.0 mm
06:49 19.4 °C 17.4 °C 1019.4 hPa Sur 4.4 km/h 6.4 km/h 88% 0.0 mm
06:54 19.5 °C 17.4 °C 1019.3 hPa Sur 3.2 km/h 4.8 km/h 88% 0.0 mm
06:59 19.5 °C 17.4 °C 1019.3 hPa Sur 3 km/h 4.7 km/h 87.8% 0.0 mm
07:04 19.4 °C 17.2 °C 1019.3 hPa Sur 2.2 km/h 5.6 km/h 87% 0.0 mm
07:09 19.4 °C 17.2 °C 1019.3 hPa Sur 2.4 km/h 5.8 km/h 87% 0.0 mm
07:14 19.3 °C 17.1 °C 1019.3 hPa Sur 2.9 km/h 6.4 km/h 87% 0.0 mm
07:19 19.3 °C 17.1 °C 1019.3 hPa Sur 2.8 km/h 5.6 km/h 87% 0.0 mm
07:24 19.3 °C 17.2 °C 1019.3 hPa Sur 2.2 km/h 6.4 km/h 87.9% 0.0 mm
07:29 19.3 °C 17.3 °C 1019.3 hPa SSO 2.4 km/h 8 km/h 88% 0.0 mm
07:34 19.3 °C 17.3 °C 1019.3 hPa SSO 3.2 km/h 8 km/h 88% 0.0 mm
07:39 19.2 °C 17.2 °C 1019.3 hPa SSO 3 km/h 5.6 km/h 88% 0.0 mm
07:44 19.2 °C 17.1 °C 1019.3 hPa SSO 2.2 km/h 4.8 km/h 87.7% 0.0 mm
07:49 19.1 °C 17.1 °C 1019.4 hPa SSO 1.8 km/h 3.2 km/h 88% 0.0 mm
07:54 19.1 °C 17.1 °C 1019.4 hPa Calm   5.8 km/h 88% 0.0 mm
07:59 19.1 °C 17.2 °C 1019.4 hPa Sur 0.7 km/h 6.4 km/h 89% 0.0 mm
08:04 19.2 °C 17.3 °C 1019.4 hPa SSE 2.9 km/h 9.3 km/h 89% 0.0 mm
08:09 19.2 °C 17.3 °C 1019.3 hPa SSE 3 km/h 9.7 km/h 89% 0.0 mm
08:14 19.2 °C 17.3 °C 1019.3 hPa SSO 3.9 km/h 8.4 km/h 89% 0.0 mm
08:19 19.2 °C 17.3 °C 1019.5 hPa Sur 4.1 km/h 8 km/h 89% 0.0 mm
08:24 19.2 °C 17.3 °C 1019.5 hPa SSE 5 km/h 10 km/h 89% 0.0 mm
08:29 19.2 °C 17.3 °C 1019.5 hPa Sur 5.3 km/h 9.7 km/h 89% 0.0 mm
08:34 19.2 °C 17.3 °C 1019.6 hPa SSO 6.4 km/h 10 km/h 89% 0.0 mm
08:39 19.2 °C 17.3 °C 1019.6 hPa SSO 6.3 km/h 9.7 km/h 89% 0.0 mm
08:44 19.2 °C 17.4 °C 1019.6 hPa SO 5.8 km/h 9.7 km/h 89% 0.0 mm
08:49 19.3 °C 17.4 °C 1019.6 hPa SSO 5.6 km/h 9.7 km/h 89% 0.0 mm
08:54 19.3 °C 17.5 °C 1019.6 hPa SO 5 km/h 9.7 km/h 89% 0.0 mm
08:59 19.4 °C 17.4 °C 1019.6 hPa SO 5 km/h 8 km/h 88.5% 0.0 mm
09:04 19.5 °C 17.5 °C 1019.8 hPa OSO 5 km/h 8 km/h 88% 0.0 mm
09:09 19.7 °C 17.6 °C 1019.8 hPa SO 4.8 km/h 8 km/h 88% 0.0 mm
09:14 19.7 °C 17.5 °C 1019.8 hPa SSO 3.9 km/h 8 km/h 87.3% 0.0 mm
09:19 19.7 °C 17.5 °C 1019.9 hPa Sur 4 km/h 8 km/h 87% 0.0 mm
09:24 19.8 °C 17.6 °C 1019.9 hPa Sur 4.7 km/h 10 km/h 87% 0.0 mm
09:29 19.9 °C 17.6 °C 1019.9 hPa Sur 4.8 km/h 9.7 km/h 86.5% 0.0 mm
09:34 19.9 °C 17.6 °C 1020.1 hPa Sur 5.8 km/h 9.7 km/h 86% 0.0 mm
09:39 20.1 °C 17.7 °C 1020.1 hPa Sur 5.9 km/h 10 km/h 86% 0.0 mm
09:44 20.1 °C 17.5 °C 1020.1 hPa Sur 6.4 km/h 11.1 km/h 85.1% 0.0 mm
09:49 20.2 °C 17.6 °C 1020.3 hPa Sur 6.5 km/h 11.3 km/h 85% 0.0 mm
09:54 20.2 °C 17.6 °C 1020.3 hPa SSO 6.5 km/h 9.7 km/h 85% 0.0 mm
09:59 20.3 °C 17.6 °C 1020.3 hPa SSO 6.5 km/h 10 km/h 84.9% 0.0 mm
10:04 20.3 °C 17.6 °C 1020.5 hPa SSO 6.5 km/h 13 km/h 84% 0.0 mm
10:09 20.3 °C 17.5 °C 1020.5 hPa SSO 6.9 km/h 13 km/h 84% 0.0 mm
10:14 20.3 °C 17.5 °C 1020.5 hPa SSO 8.7 km/h 13 km/h 84% 0.0 mm
10:19 20.3 °C 17.5 °C 1020.6 hPa SSO 8.6 km/h 12.9 km/h 84% 0.0 mm
10:24 20.3 °C 17.5 °C 1020.6 hPa SSO 8.4 km/h 13 km/h 84% 0.0 mm
10:29 20.4 °C 17.6 °C 1020.6 hPa SSO 8.2 km/h 12.9 km/h 83.9% 0.0 mm
10:34 20.6 °C 17.7 °C 1020.8 hPa SSO 7.6 km/h 11.3 km/h 83.9% 0.0 mm
10:39 20.8 °C 17.8 °C 1020.8 hPa Sur 7.4 km/h 9.7 km/h 82.9% 0.0 mm
10:44 21.1 °C 17.9 °C 1020.8 hPa SSO 6.5 km/h 9.7 km/h 82% 0.0 mm
10:49 21.3 °C 17.9 °C 1020.8 hPa SSO 6.2 km/h 9.7 km/h 80.8% 0.0 mm
10:54 21.6 °C 17.8 °C 1020.8 hPa OSO 5 km/h 9.7 km/h 79.4% 0.0 mm
10:59 21.7 °C 17.8 °C 1020.8 hPa OSO 4.9 km/h 8 km/h 78.7% 0.0 mm
11:04 21.8 °C 17.8 °C 1020.8 hPa Oeste 4.7 km/h 8 km/h 78% 0.0 mm
11:09 21.8 °C 17.8 °C 1020.8 hPa ONO 4.3 km/h 8 km/h 78% 0.0 mm
11:14 22.2 °C 18 °C 1020.8 hPa SO 2.9 km/h 8.4 km/h 77.2% 0.0 mm
11:19 22.6 °C 18.1 °C 1020.8 hPa SSO 2.9 km/h 8 km/h 75.5% 0.0 mm
11:24 23 °C 18.1 °C 1020.7 hPa Sur 2.9 km/h 9.3 km/h 73.9% 0.0 mm
11:29 23.1 °C 18.1 °C 1020.7 hPa SSO 3.3 km/h 9.7 km/h 73.2% 0.0 mm
11:34 23.1 °C 18.1 °C 1020.7 hPa SSO 5 km/h 9.7 km/h 73.3% 0.0 mm
11:39 23.3 °C 18.2 °C 1020.6 hPa SSE 4.8 km/h 9.7 km/h 73.2% 0.0 mm
11:44 23.6 °C 18 °C 1020.6 hPa ESE 3.9 km/h 8.4 km/h 71.1% 0.0 mm
11:49 23.6 °C 18.2 °C 1020.6 hPa NNE 4 km/h 11.1 km/h 71.5% 0.0 mm
11:54 23.7 °C 18.2 °C 1020.5 hPa Este 4.7 km/h 11.3 km/h 71.4% 0.0 mm
11:59 23.9 °C 18.3 °C 1020.5 hPa ESE 4.3 km/h 11.1 km/h 70.8% 0.0 mm
12:04 24 °C 18.2 °C 1020.5 hPa NNO 3.2 km/h 11.3 km/h 70.3% 0.0 mm
12:09 24.1 °C 18.2 °C 1020.4 hPa Este 3.6 km/h 10 km/h 70% 0.0 mm
12:14 24.1 °C 18.3 °C 1020.4 hPa NE 5 km/h 9.7 km/h 70% 0.0 mm
12:19 24.1 °C 18.3 °C 1020.4 hPa NNE 5 km/h 9.3 km/h 70% 0.0 mm
12:24 24.1 °C 18.4 °C 1020.3 hPa NE 5 km/h 14.8 km/h 70.6% 0.0 mm
12:29 24.1 °C 18.4 °C 1020.3 hPa NE 5.5 km/h 17.2 km/h 70.5% 0.0 mm
12:34 23.8 °C 18.1 °C 1020.3 hPa ENE 7.6 km/h 17.7 km/h 70.2% 0.0 mm
12:39 23.7 °C 18.1 °C 1020.2 hPa ENE 7.9 km/h 17.2 km/h 70.8% 0.0 mm
12:44 23.7 °C 17.8 °C 1020.2 hPa NE 9.5 km/h 18.3 km/h 69.4% 0.0 mm
12:49 23.8 °C 17.7 °C 1020.2 hPa NE 9.6 km/h 19.3 km/h 68.9% 0.0 mm
12:54 23.8 °C 17.9 °C 1020.0 hPa NE 10 km/h 19.3 km/h 69.3% 0.0 mm
12:59 24 °C 17.9 °C 1020.0 hPa NE 9.3 km/h 16.7 km/h 68.9% 0.0 mm
13:04 24.2 °C 18 °C 1020.0 hPa NE 6.9 km/h 16.7 km/h 68.5% 0.0 mm
13:09 24.4 °C 18.2 °C 1020.0 hPa NNE 6.9 km/h 14.5 km/h 68.1% 0.0 mm
13:14 24.8 °C 18.2 °C 1020.0 hPa NE 6.9 km/h 16.7 km/h 66.8% 0.0 mm
13:19 24.8 °C 18.2 °C 1020.0 hPa NE 7.3 km/h 18.5 km/h 66.7% 0.0 mm
13:24 24.7 °C 18.1 °C 1019.7 hPa NE 8.7 km/h 19.3 km/h 66.7% 0.0 mm
13:29 24.6 °C 18.1 °C 1019.7 hPa NNE 8.9 km/h 19.3 km/h 67% 0.0 mm
13:34 24.8 °C 18.1 °C 1019.7 hPa North 9.5 km/h 14.8 km/h 66.3% 0.0 mm
13:39 25 °C 18 °C 1019.4 hPa NNE 9.3 km/h 18.5 km/h 65.1% 0.0 mm
13:44 25.1 °C 17.9 °C 1019.4 hPa NE 8.4 km/h 24.5 km/h 64.5% 0.0 mm
13:49 24.9 °C 17.9 °C 1019.4 hPa NE 9.6 km/h 24.1 km/h 65% 0.0 mm
13:54 25 °C 17.9 °C 1019.3 hPa NE 14.8 km/h 22.5 km/h 64.9% 0.0 mm
13:59 25.2 °C 17.9 °C 1019.3 hPa NNE 13.6 km/h 20.9 km/h 64.3% 0.0 mm
14:04 25.5 °C 18.1 °C 1019.3 hPa NE 10 km/h 26.2 km/h 63.7% 0.0 mm
14:09 25.4 °C 17.9 °C 1018.8 hPa NNE 10.9 km/h 25.9 km/h 63.3% 0.0 mm
14:14 25.3 °C 18 °C 1018.8 hPa NE 14.8 km/h 27 km/h 64.4% 0.0 mm
14:19 25.4 °C 17.9 °C 1018.8 hPa NE 14.3 km/h 27.8 km/h 63.4% 0.0 mm
14:24 25.3 °C 17.7 °C 1018.6 hPa NE 12.2 km/h 27.4 km/h 63% 0.0 mm
14:29 25.4 °C 17.5 °C 1018.6 hPa NE 12.2 km/h 22.5 km/h 61.6% 0.0 mm
14:34 25.6 °C 17.2 °C 1018.6 hPa NE 12.2 km/h 22.5 km/h 59.7% 0.0 mm
14:39 25.7 °C 17.2 °C 1018.5 hPa NE 11.8 km/h 22.5 km/h 59.5% 0.0 mm
14:44 25.7 °C 17.1 °C 1018.5 hPa ENE 10 km/h 20.9 km/h 58.9% 0.0 mm
14:49 25.7 °C 16.8 °C 1018.5 hPa NE 10.7 km/h 20.9 km/h 57.7% 0.0 mm
14:54 25.8 °C 16.9 °C 1018.3 hPa ENE 13.7 km/h 24.5 km/h 58.2% 0.0 mm
14:59 25.8 °C 16.4 °C 1018.3 hPa NE 13.2 km/h 24.1 km/h 56.4% 0.0 mm
15:04 25.8 °C 16.7 °C 1018.3 hPa NNE 11.9 km/h 24.1 km/h 57.5% 0.0 mm
15:09 25.8 °C 16.9 °C 1017.9 hPa NNE 12.3 km/h 24.5 km/h 58.1% 0.0 mm
15:14 25.8 °C 16.7 °C 1017.9 hPa NE 14 km/h 24.1 km/h 57.2% 0.0 mm
15:19 25.7 °C 16.5 °C 1017.9 hPa NE 13.9 km/h 22.5 km/h 56.7% 0.0 mm
15:24 25.8 °C 16.6 °C 1017.8 hPa NE 13.7 km/h 22.5 km/h 56.9% 0.0 mm
15:29 25.9 °C 16.9 °C 1017.8 hPa NE 13.7 km/h 29.8 km/h 57.6% 0.0 mm
15:34 25.8 °C 17.2 °C 1017.8 hPa NE 14 km/h 30.6 km/h 58.7% 0.0 mm
15:39 25.8 °C 17.4 °C 1017.6 hPa NE 14.2 km/h 22.5 km/h 59.7% 0.0 mm
15:44 25.8 °C 17.3 °C 1017.6 hPa NE 14.8 km/h 29.6 km/h 59.6% 0.0 mm
15:49 25.7 °C 17.4 °C 1017.6 hPa NE 15 km/h 31.5 km/h 60% 0.0 mm
15:54 25.7 °C 17.4 °C 1017.5 hPa NE 15.6 km/h 32.2 km/h 60% 0.0 mm
15:59 25.8 °C 17.1 °C 1017.5 hPa NE 15.2 km/h 24.5 km/h 58.7% 0.0 mm
16:04 25.8 °C 17.2 °C 1017.5 hPa NE 14 km/h 24.1 km/h 59.2% 0.0 mm
16:09 25.8 °C 17.5 °C 1017.3 hPa NE 13.8 km/h 25.9 km/h 60% 0.0 mm
16:14 25.9 °C 17.6 °C 1017.3 hPa NE 13 km/h 29.1 km/h 60.2% 0.0 mm
16:19 25.7 °C 17.6 °C 1017.3 hPa NE 13.2 km/h 29.6 km/h 60.7% 0.0 mm
16:24 25.8 °C 17.3 °C 1017.2 hPa NE 13.7 km/h 25.9 km/h 59.6% 0.0 mm
16:29 25.8 °C 17.3 °C 1017.2 hPa NE 13.4 km/h 25.9 km/h 59.6% 0.0 mm
16:34 25.8 °C 17.4 °C 1017.3 hPa ENE 12.2 km/h 25.7 km/h 60% 0.0 mm
16:39 25.8 °C 17.7 °C 1017.3 hPa NE 12.5 km/h 30.6 km/h 61% 0.0 mm
16:44 25.6 °C 17.7 °C 1017.3 hPa NE 13.7 km/h 30.6 km/h 61.6% 0.0 mm
16:49 25.4 °C 17.5 °C 1017.3 hPa NE 13.7 km/h 29 km/h 61.8% 0.0 mm
16:54 25.4 °C 17.4 °C 1017.2 hPa NE 14 km/h 20.9 km/h 61.1% 0.0 mm
16:59 25.3 °C 17.5 °C 1017.2 hPa NE 14.2 km/h 22.5 km/h 61.7% 0.0 mm
17:04 25.4 °C 17.5 °C 1017.2 hPa NE 14.8 km/h 22.5 km/h 61.7% 0.0 mm
17:09 25.5 °C 17.5 °C 1017.2 hPa NE 14.6 km/h 24.1 km/h 61.4% 0.0 mm
17:14 25.3 °C 17.3 °C 1017.2 hPa NE 13.7 km/h 24.5 km/h 61.1% 0.0 mm
17:19 25.3 °C 17.4 °C 1017.2 hPa NE 13.9 km/h 25.9 km/h 61.6% 0.0 mm
17:24 25.2 °C 17.7 °C 1017.0 hPa NE 14.8 km/h 25.7 km/h 63.1% 0.0 mm
17:29 25.2 °C 17.9 °C 1017.0 hPa ENE 13.9 km/h 22.5 km/h 64% 0.0 mm
17:34 25.1 °C 17.8 °C 1017.0 hPa NE 10.3 km/h 23.3 km/h 64% 0.0 mm
17:39 24.9 °C 17.6 °C 1017.0 hPa NE 11 km/h 24.1 km/h 64.3% 0.0 mm
17:44 24.8 °C 17.8 °C 1017.0 hPa ENE 13.7 km/h 20.9 km/h 65% 0.0 mm
17:49 24.8 °C 17.8 °C 1017.0 hPa ENE 13.1 km/h 20.9 km/h 65% 0.0 mm
17:54 24.7 °C 17.8 °C 1017.0 hPa ENE 11.1 km/h 23.3 km/h 65.6% 0.0 mm
17:59 24.6 °C 17.9 °C 1017.0 hPa ENE 11.1 km/h 24.1 km/h 66.2% 0.0 mm
18:04 24.6 °C 18 °C 1017.0 hPa NE 11.1 km/h 21.7 km/h 67% 0.0 mm
18:09 24.4 °C 17.9 °C 1017.0 hPa NE 11 km/h 22.5 km/h 67% 0.0 mm
18:14 24.4 °C 18.1 °C 1017.0 hPa ENE 10.3 km/h 20.9 km/h 67.7% 0.0 mm
18:19 24.3 °C 18.1 °C 1017.2 hPa NE 10.3 km/h 20.9 km/h 68% 0.0 mm
18:24 24.3 °C 18.1 °C 1017.2 hPa ENE 10.3 km/h 19.3 km/h 68.4% 0.0 mm
18:29 24.2 °C 18.2 °C 1017.2 hPa NE 10.3 km/h 19 km/h 69% 0.0 mm
18:34 24.1 °C 18.1 °C 1017.3 hPa ENE 10 km/h 19.3 km/h 69.1% 0.0 mm
18:39 24.1 °C 18.3 °C 1017.3 hPa ENE 9.7 km/h 17.7 km/h 70% 0.0 mm
18:44 24 °C 18.2 °C 1017.3 hPa NE 8.7 km/h 14.8 km/h 70% 0.0 mm
18:49 23.9 °C 18.3 °C 1017.3 hPa NE 8.5 km/h 16.7 km/h 70.6% 0.0 mm
18:54 23.9 °C 18.3 °C 1017.2 hPa NE 7.6 km/h 18.5 km/h 71% 0.0 mm
18:59 23.8 °C 18.2 °C 1017.2 hPa ENE 8.2 km/h 19.3 km/h 71% 0.0 mm
19:04 23.7 °C 18.1 °C 1017.2 hPa NE 10.3 km/h 17.7 km/h 71% 0.0 mm
19:09 23.7 °C 18.3 °C 1017.2 hPa NE 9.7 km/h 14.5 km/h 72% 0.0 mm
19:14 23.7 °C 18.3 °C 1017.2 hPa NE 6.9 km/h 13 km/h 72% 0.0 mm
19:19 23.6 °C 18.3 °C 1017.2 hPa NE 7.3 km/h 15.6 km/h 72.4% 0.0 mm
19:24 23.4 °C 18.3 °C 1017.0 hPa NE 8.7 km/h 16.1 km/h 73% 0.0 mm
19:29 23.4 °C 18.3 °C 1017.0 hPa NE 8.4 km/h 14.5 km/h 73% 0.0 mm
19:34 23.3 °C 18.3 °C 1017.2 hPa NE 6.9 km/h 13 km/h 73.3% 0.0 mm
19:39 23.3 °C 18.4 °C 1017.2 hPa NE 7 km/h 13.7 km/h 74% 0.0 mm
19:44 23.2 °C 18.3 °C 1017.2 hPa NE 7.6 km/h 14.5 km/h 74% 0.0 mm
19:49 23.2 °C 18.5 °C 1017.2 hPa NE 7.4 km/h 11.9 km/h 75% 0.0 mm
19:54 23.1 °C 18.4 °C 1017.2 hPa NE 6.9 km/h 11.3 km/h 75% 0.0 mm
19:59 23.1 °C 18.4 °C 1017.2 hPa NE 6.8 km/h 13 km/h 75% 0.0 mm
20:04 23 °C 18.5 °C 1017.2 hPa NE 6.5 km/h 12.9 km/h 75.8% 0.0 mm
20:09 22.9 °C 18.5 °C 1017.2 hPa NE 6.5 km/h 10 km/h 76% 0.0 mm
20:14 22.9 °C 18.4 °C 1017.2 hPa NE 6.5 km/h 11.9 km/h 76% 0.0 mm
20:19 22.8 °C 18.5 °C 1017.2 hPa NE 6.5 km/h 11.3 km/h 76.6% 0.0 mm
20:24 22.7 °C 18.5 °C 1017.2 hPa NE 6.5 km/h 9.7 km/h 77% 0.0 mm
20:29 22.7 °C 18.5 °C 1017.2 hPa NE 6.3 km/h 11.1 km/h 77.4% 0.0 mm
20:34 22.6 °C 18.6 °C 1017.3 hPa NE 5.8 km/h 11.3 km/h 78% 0.0 mm
20:39 22.6 °C 18.5 °C 1017.3 hPa NNE 5.6 km/h 8.7 km/h 78% 0.0 mm
20:44 22.4 °C 18.5 °C 1017.3 hPa NE 4.7 km/h 9.7 km/h 78.5% 0.0 mm
20:49 22.4 °C 18.6 °C 1017.3 hPa NNE 4.7 km/h 9.7 km/h 79% 0.0 mm
20:54 22.4 °C 18.5 °C 1017.2 hPa North 5 km/h 8 km/h 79% 0.0 mm
20:59 22.3 °C 18.5 °C 1017.2 hPa NE 4.9 km/h 8 km/h 79% 0.0 mm
21:04 22.3 °C 18.6 °C 1017.3 hPa NE 4.7 km/h 9.3 km/h 79.7% 0.0 mm
21:09 22.3 °C 18.7 °C 1017.3 hPa NE 4.9 km/h 9.7 km/h 80% 0.0 mm
21:14 22.2 °C 18.6 °C 1017.3 hPa NE 5.8 km/h 9.7 km/h 80% 0.0 mm
21:19 22.2 °C 18.6 °C 1017.3 hPa NE 5.8 km/h 10 km/h 80% 0.0 mm
21:24 22.2 °C 18.6 °C 1017.2 hPa NE 5.8 km/h 9.7 km/h 80% 0.0 mm
21:29 22.2 °C 18.6 °C 1017.2 hPa NE 5.6 km/h 8 km/h 80% 0.0 mm
21:34 22.1 °C 18.6 °C 1017.4 hPa NE 4.7 km/h 8.4 km/h 80.3% 0.0 mm
21:39 22.1 °C 18.7 °C 1017.4 hPa ENE 4.7 km/h 8 km/h 81% 0.0 mm
21:44 22.1 °C 18.7 °C 1017.4 hPa ENE 4.7 km/h 8 km/h 81% 0.0 mm
21:49 22.1 °C 18.7 °C 1017.7 hPa ENE 4.3 km/h 5.6 km/h 81% 0.0 mm
21:54 22.1 °C 18.7 °C 1017.7 hPa ENE 2.9 km/h 3.9 km/h 81% 0.0 mm
21:59 22.1 °C 18.7 °C 1017.7 hPa ENE 2.7 km/h 5 km/h 81% 0.0 mm
22:04 22.1 °C 18.7 °C 1017.9 hPa ENE 2.2 km/h 5.8 km/h 81% 0.0 mm
22:09 22.1 °C 18.7 °C 1017.9 hPa ENE 2.4 km/h 6.4 km/h 81% 0.0 mm
22:14 22.1 °C 18.7 °C 1017.9 hPa ENE 2.9 km/h 5.8 km/h 81% 0.0 mm
22:19 22 °C 18.6 °C 1017.9 hPa ENE 3 km/h 6.4 km/h 81% 0.0 mm
22:24 21.9 °C 18.6 °C 1017.8 hPa NE 3.2 km/h 4.8 km/h 81% 0.0 mm
22:29 21.9 °C 18.5 °C 1017.8 hPa North 3.2 km/h 4.8 km/h 81% 0.0 mm
22:34 21.9 °C 18.6 °C 1017.9 hPa North 2.9 km/h 5.6 km/h 81.4% 0.0 mm
22:39 21.8 °C 18.6 °C 1017.9 hPa North 2.4 km/h 4.8 km/h 82% 0.0 mm
22:44 21.8 °C 18.6 °C 1017.9 hPa Calm   3.9 km/h 82% 0.0 mm
22:49 21.8 °C 18.6 °C 1018.1 hPa Calm   3.9 km/h 82% 0.0 mm
22:54 21.8 °C 18.6 °C 1018.1 hPa Calm   3.9 km/h 82% 0.0 mm
22:59 21.8 °C 18.6 °C 1018.1 hPa North 0.5 km/h 3.9 km/h 82% 0.0 mm
23:04 21.8 °C 18.6 °C 1018.1 hPa North 2.2 km/h 3.9 km/h 82% 0.0 mm
23:09 21.8 °C 18.6 °C 1018.0 hPa North 1.8 km/h 4.7 km/h 82% 0.0 mm
23:14 21.8 °C 18.6 °C 1018.0 hPa Calm   4.8 km/h 82% 0.0 mm
23:19 21.8 °C 18.6 °C 1018.1 hPa Calm   5 km/h 82% 0.0 mm
23:24 21.7 °C 18.5 °C 1018.1 hPa Calm   5.6 km/h 82% 0.0 mm
23:29 21.7 °C 18.5 °C 1018.1 hPa North 0.6 km/h 5.8 km/h 82% 0.0 mm
23:34 21.6 °C 18.4 °C 1018.1 hPa North 2.9 km/h 7.4 km/h 82% 0.0 mm
23:39 21.6 °C 18.5 °C 1018.0 hPa NO 3 km/h 8 km/h 82.6% 0.0 mm
23:44 21.5 °C 18.5 °C 1018.0 hPa NO 3.2 km/h 8 km/h 83% 0.0 mm
23:49 21.4 °C 18.4 °C 1018.0 hPa NO 3 km/h 6.4 km/h 83% 0.0 mm
23:54 21.3 °C 18.4 °C 1018.0 hPa NO 2.2 km/h 4.8 km/h 83.5% 0.0 mm
23:59 21.3 °C 18.5 °C 1018.0 hPa NO 2.2 km/h 4.7 km/h 84% 0.0 mm
Murcia-Puente Tocinos, España
Compliments of Weather Underground - 3 mb

La estación de MeteoMurcia.com, publica sus datos en los siguientes proyectos:

Weather Underground PWS IMURCIAP2 Meteoclimatic www.awekas.at

W3Counter
Web Analytics